When you browse on this site, cookies collect data to enhance your experience and personalize the content and advertising you see.
Visit our Privacy Policy to learn more. By continuing to use the site, you agree to this use of cookies and data.
  • Em Portugal
  • Lista de países
  • Para 7 dias
  • Temperatura da água
  • Mapa do tempo
  • Widgets de tempo
  • user-avatar
    Iniciar Sessão

    Previsão horária em Lisboa

    Hoje, 21 Novembro, Quinta-feira

    Tempo Temperatura Precipitação Vento Pressão Humidade
    00:00 +13°C° 0.3 mm 2 m/s 752 mmHg 87%
    01:00 +13°C° 0.3 mm 2 m/s 751 mmHg 86%
    02:00 +14°C° 0.3 mm 2 m/s 751 mmHg 85%
    03:00 +14°C° 0.1 mm 2 m/s 751 mmHg 84%
    04:00 +14°C° 0.1 mm 2 m/s 751 mmHg 83%
    05:00 +14°C° 0.1 mm 2 m/s 751 mmHg 82%
    06:00 +14°C° 0.1 mm 2 m/s 751 mmHg 82%
    07:00 +14°C° 0.1 mm 2 m/s 751 mmHg 82%
    08:00 +14°C° 0.1 mm 2 m/s 751 mmHg 82%
    09:00 +15°C° 0.2 mm 2 m/s 751 mmHg 81%
    10:00 +15°C° 0.2 mm 2 m/s 751 mmHg 80%
    11:00 +15°C° 0.2 mm 1 m/s 751 mmHg 78%
    12:00 +16°C° 0.1 mm 2 m/s 751 mmHg 75%
    13:00 +16°C° 0.1 mm 2 m/s 751 mmHg 72%
    14:00 +17°C° 0.1 mm 3 m/s 751 mmHg 69%
    15:00 +16°C° 0 mm 2 m/s 751 mmHg 74%
    16:00 +15°C° 0 mm 2 m/s 751 mmHg 79%
    17:00 +13°C° 0 mm 2 m/s 751 mmHg 84%
    18:00 +13°C° 0 mm 2 m/s 751 mmHg 85%
    19:00 +13°C° 0 mm 2 m/s 751 mmHg 86%
    20:00 +12°C° 0 mm 3 m/s 751 mmHg 88%
    21:00 +13°C° 0.1 mm 4 m/s 750 mmHg 88%
    22:00 +13°C° 0.1 mm 4 m/s 750 mmHg 88%
    23:00 +14°C° 0.1 mm 5 m/s 749 mmHg 88%

    Amanhã, 22 Novembro, Sexta-feira

    Tempo Temperatura Precipitação Vento Pressão Humidade
    00:00 +14°C° 1.7 mm 7 m/s 749 mmHg 89%
    01:00 +13°C° 1.7 mm 8 m/s 748 mmHg 90%
    02:00 +13°C° 1.7 mm 9 m/s 747 mmHg 91%
    03:00 +15°C° 2.7 mm 9 m/s 747 mmHg 92%
    04:00 +15°C° 2.7 mm 9 m/s 746 mmHg 93%
    05:00 +16°C° 2.7 mm 9 m/s 745 mmHg 94%
    06:00 +16°C° 0.8 mm 9 m/s 745 mmHg 92%
    07:00 +17°C° 0.8 mm 10 m/s 744 mmHg 90%
    08:00 +17°C° 0.8 mm 10 m/s 744 mmHg 88%
    09:00 +17°C° 1.7 mm 10 m/s 744 mmHg 87%
    10:00 +17°C° 1.7 mm 10 m/s 744 mmHg 86%
    11:00 +17°C° 1.7 mm 11 m/s 743 mmHg 85%
    12:00 +16°C° 0.1 mm 10 m/s 744 mmHg 80%
    13:00 +16°C° 0.1 mm 10 m/s 744 mmHg 75%
    14:00 +16°C° 0.1 mm 10 m/s 744 mmHg 69%
    15:00 +14°C° 0.1 mm 10 m/s 744 mmHg 71%
    16:00 +14°C° 0.1 mm 10 m/s 745 mmHg 73%
    17:00 +15°C° 0.1 mm 9 m/s 745 mmHg 74%
    18:00 +13°C° 0.1 mm 9 m/s 746 mmHg 73%
    19:00 +13°C° 0.1 mm 9 m/s 747 mmHg 73%
    20:00 +13°C° 0.1 mm 9 m/s 747 mmHg 72%
    21:00 +13°C° 0.1 mm 9 m/s 748 mmHg 71%
    22:00 +13°C° 0.1 mm 9 m/s 748 mmHg 70%
    23:00 +13°C° 0.1 mm 9 m/s 748 mmHg 69%

    Depois de amanhã, 23 Novembro, Sábado

    Tempo Temperatura Precipitação Vento Pressão Humidade
    00:00 +12°C° 0.2 mm 9 m/s 749 mmHg 70%
    01:00 +12°C° 0.2 mm 9 m/s 750 mmHg 71%
    02:00 +12°C° 0.2 mm 9 m/s 750 mmHg 72%
    03:00 +12°C° 0.1 mm 9 m/s 750 mmHg 72%
    04:00 +11°C° 0.1 mm 8 m/s 751 mmHg 73%
    05:00 +11°C° 0.1 mm 7 m/s 751 mmHg 74%
    06:00 +11°C° 0 mm 7 m/s 752 mmHg 73%
    07:00 +13°C° 0 mm 6 m/s 753 mmHg 72%
    08:00 +13°C° 0 mm 6 m/s 754 mmHg 71%
    09:00 +14°C° 0.1 mm 6 m/s 754 mmHg 67%
    10:00 +15°C° 0.1 mm 6 m/s 755 mmHg 64%
    11:00 +15°C° 0.1 mm 6 m/s 755 mmHg 60%
    12:00 +15°C° 0.1 mm 6 m/s 756 mmHg 61%
    13:00 +15°C° 0.1 mm 6 m/s 756 mmHg 62%
    14:00 +15°C° 0.1 mm 6 m/s 756 mmHg 64%
    15:00 +14°C° 0 mm 5 m/s 756 mmHg 68%
    16:00 +13°C° 0 mm 5 m/s 757 mmHg 73%
    17:00 +12°C° 0 mm 4 m/s 757 mmHg 77%
    18:00 +12°C° 0 mm 4 m/s 758 mmHg 78%
    19:00 +12°C° 0 mm 4 m/s 758 mmHg 79%
    20:00 +11°C° 0 mm 3 m/s 759 mmHg 80%
    21:00 +11°C° 0 mm 3 m/s 759 mmHg 80%
    22:00 +11°C° 0 mm 3 m/s 759 mmHg 81%
    23:00 +12°C° 0 mm 2 m/s 759 mmHg 81%

    24 Novembro, Domingo

    Tempo Temperatura Precipitação Vento Pressão Humidade
    00:00 +10°C° 0 mm 2 m/s 759 mmHg 81%
    01:00 +10°C° 0 mm 2 m/s 759 mmHg 81%
    02:00 +11°C° 0 mm 1 m/s 760 mmHg 81%
    03:00 +11°C° 0 mm 1 m/s 760 mmHg 82%
    04:00 +11°C° 0 mm 1 m/s 760 mmHg 83%
    05:00 +11°C° 0 mm 1 m/s 760 mmHg 84%
    06:00 +12°C° 0 mm 1 m/s 760 mmHg 82%
    07:00 +12°C° 0 mm 1 m/s 760 mmHg 80%
    08:00 +13°C° 0 mm 1 m/s 761 mmHg 78%
    09:00 +14°C° 0 mm 1 m/s 761 mmHg 73%
    10:00 +15°C° 0 mm 2 m/s 761 mmHg 69%
    11:00 +17°C° 0 mm 2 m/s 761 mmHg 64%
    12:00 +17°C° 0 mm 3 m/s 761 mmHg 65%
    13:00 +17°C° 0 mm 3 m/s 760 mmHg 66%
    14:00 +17°C° 0 mm 3 m/s 760 mmHg 66%
    15:00 +16°C° 0 mm 3 m/s 760 mmHg 72%
    16:00 +14°C° 0 mm 3 m/s 760 mmHg 77%
    17:00 +14°C° 0 mm 2 m/s 760 mmHg 83%
    18:00 +14°C° 0 mm 2 m/s 761 mmHg 84%
    19:00 +14°C° 0 mm 2 m/s 761 mmHg 86%
    20:00 +13°C° 0 mm 2 m/s 761 mmHg 88%
    21:00 +13°C° 0 mm 2 m/s 761 mmHg 89%
    22:00 +13°C° 0 mm 2 m/s 761 mmHg 90%
    23:00 +12°C° 0 mm 3 m/s 761 mmHg 91%

    25 Novembro, Segunda-feira

    Tempo Temperatura Precipitação Vento Pressão Humidade
    00:00 +12°C° 0 mm 3 m/s 761 mmHg 91%
    01:00 +12°C° 0 mm 3 m/s 761 mmHg 92%
    02:00 +12°C° 0 mm 3 m/s 761 mmHg 93%
    03:00 +12°C° 0 mm 3 m/s 761 mmHg 93%
    04:00 +12°C° 0 mm 3 m/s 761 mmHg 94%
    05:00 +12°C° 0 mm 3 m/s 761 mmHg 94%
    06:00 +13°C° 0 mm 3 m/s 761 mmHg 92%
    07:00 +14°C° 0 mm 3 m/s 761 mmHg 90%
    08:00 +14°C° 0 mm 4 m/s 762 mmHg 88%
    09:00 +15°C° 0 mm 4 m/s 762 mmHg 85%
    10:00 +17°C° 0 mm 4 m/s 762 mmHg 82%
    11:00 +18°C° 0 mm 4 m/s 762 mmHg 79%
    12:00 +18°C° 0 mm 4 m/s 761 mmHg 79%
    13:00 +18°C° 0 mm 4 m/s 761 mmHg 79%
    14:00 +18°C° 0 mm 4 m/s 761 mmHg 79%
    15:00 +17°C° 0 mm 4 m/s 761 mmHg 82%
    16:00 +17°C° 0 mm 4 m/s 761 mmHg 85%
    17:00 +16°C° 0 mm 3 m/s 761 mmHg 88%
    18:00 +16°C° 0 mm 3 m/s 761 mmHg 89%
    19:00 +16°C° 0 mm 3 m/s 761 mmHg 90%
    20:00 +16°C° 0 mm 3 m/s 761 mmHg 92%
    21:00 +16°C° 0 mm 3 m/s 761 mmHg 93%
    22:00 +14°C° 0 mm 3 m/s 761 mmHg 94%
    23:00 +14°C° 0 mm 3 m/s 761 mmHg 95%

    26 Novembro, Terça-feira

    Tempo Temperatura Precipitação Vento Pressão Humidade
    00:00 +14°C° 0 mm 3 m/s 761 mmHg 95%
    01:00 +14°C° 0 mm 3 m/s 760 mmHg 94%
    02:00 +14°C° 0 mm 3 m/s 760 mmHg 94%
    03:00 +14°C° 0 mm 3 m/s 760 mmHg 93%
    04:00 +15°C° 0 mm 2 m/s 760 mmHg 92%
    05:00 +15°C° 0 mm 2 m/s 759 mmHg 91%
    06:00 +14°C° 0 mm 3 m/s 759 mmHg 89%
    07:00 +16°C° 0 mm 3 m/s 760 mmHg 86%
    08:00 +16°C° 0 mm 3 m/s 760 mmHg 84%
    09:00 +16°C° 0 mm 3 m/s 760 mmHg 80%
    10:00 +16°C° 0 mm 3 m/s 759 mmHg 77%
    11:00 +17°C° 0 mm 3 m/s 759 mmHg 74%
    12:00 +18°C° 0 mm 3 m/s 759 mmHg 72%
    13:00 +18°C° 0 mm 4 m/s 758 mmHg 69%
    14:00 +19°C° 0 mm 4 m/s 758 mmHg 67%
    15:00 +18°C° 0 mm 4 m/s 758 mmHg 73%
    16:00 +17°C° 0 mm 3 m/s 758 mmHg 80%
    17:00 +16°C° 0 mm 3 m/s 758 mmHg 86%
    18:00 +14°C° 0 mm 3 m/s 758 mmHg 88%
    19:00 +14°C° 0 mm 3 m/s 758 mmHg 91%
    20:00 +14°C° 0 mm 4 m/s 757 mmHg 93%
    21:00 +14°C° 0 mm 4 m/s 757 mmHg 93%
    22:00 +14°C° 0 mm 4 m/s 757 mmHg 94%
    23:00 +14°C° 0 mm 4 m/s 757 mmHg 94%
    Mostrar mais